Time,TemperatureF,DewpointF,PressureIn,WindDirection,WindDirectionDegrees,WindSpeedMPH,WindSpeedGustMPH,Humidity,HourlyPrecipIn,Conditions,Clouds,dailyrainin,SoftwareType,DateUTC
2013-02-19 00:00:00,32.4,19.9,30.22,WNW,293,7.0,15.0,60,0.00,,,0.00,meteohub,2013-02-19 05:00:00,
2013-02-19 00:01:00,32.5,20.1,30.22,WNW,293,8.0,15.0,60,0.00,,,0.00,meteohub,2013-02-19 05:01:00,
2013-02-19 00:03:00,32.5,20.1,30.22,West,270,9.0,15.0,60,0.00,,,0.00,meteohub,2013-02-19 05:03:00,
2013-02-19 00:04:00,32.5,20.1,30.22,West,270,9.0,15.0,60,0.00,,,0.00,meteohub,2013-02-19 05:04:00,
2013-02-19 00:09:00,32.5,20.1,30.22,West,270,11.0,15.0,60,0.00,,,0.00,meteohub,2013-02-19 05:09:00,
2013-02-19 00:14:00,32.5,20.1,30.22,West,270,11.0,15.0,60,0.00,,,0.00,meteohub,2013-02-19 05:14:00,
2013-02-19 00:19:00,32.5,20.1,30.22,NW,315,12.0,12.0,60,0.00,,,0.00,meteohub,2013-02-19 05:19:00,
2013-02-19 00:25:00,32.7,19.9,30.22,WNW,293,13.0,19.0,59,0.00,,,0.00,meteohub,2013-02-19 05:25:00,
2013-02-19 00:30:00,32.7,19.9,30.22,WNW,293,16.0,20.0,59,0.00,,,0.00,meteohub,2013-02-19 05:30:00,
2013-02-19 00:35:00,32.7,19.9,30.22,NW,315,15.0,20.0,59,0.00,,,0.00,meteohub,2013-02-19 05:35:00,
2013-02-19 00:40:00,32.5,19.8,30.22,West,270,12.0,16.0,59,0.00,,,0.00,meteohub,2013-02-19 05:40:00,
2013-02-19 00:45:00,32.5,19.4,30.22,NW,315,10.0,16.0,58,0.00,,,0.00,meteohub,2013-02-19 05:45:00,
2013-02-19 00:50:00,32.5,19.4,30.22,WNW,293,19.0,19.0,58,0.00,,,0.00,meteohub,2013-02-19 05:50:00,
2013-02-19 00:55:00,32.5,19.4,30.22,NW,315,8.0,19.0,58,0.00,,,0.00,meteohub,2013-02-19 05:55:00,
2013-02-19 01:00:00,32.5,19.8,30.22,NW,315,16.0,19.0,59,0.00,,,0.00,meteohub,2013-02-19 06:00:00,
2013-02-19 01:06:00,32.5,19.8,30.22,NW,315,17.0,19.0,59,0.00,,,0.00,meteohub,2013-02-19 06:06:00,
2013-02-19 01:11:00,32.7,19.9,30.22,NW,315,17.0,19.0,59,0.00,,,0.00,meteohub,2013-02-19 06:11:00,
2013-02-19 01:16:00,32.7,19.9,30.22,NW,315,13.0,17.0,59,0.00,,,0.00,meteohub,2013-02-19 06:16:00,
2013-02-19 01:21:00,32.7,20.3,30.21,NNW,338,11.0,17.0,60,0.00,,,0.00,meteohub,2013-02-19 06:21:00,
2013-02-19 01:26:00,32.9,20.5,30.21,NW,315,13.0,17.0,60,0.00,,,0.00,meteohub,2013-02-19 06:26:00,
2013-02-19 01:31:00,32.7,20.8,30.21,NW,315,11.0,18.0,61,0.00,,,0.00,meteohub,2013-02-19 06:31:00,
2013-02-19 01:36:00,32.7,21.2,30.21,NW,315,12.0,21.0,62,0.00,,,0.00,meteohub,2013-02-19 06:36:00,
2013-02-19 01:41:00,32.7,21.2,30.21,NW,315,12.0,21.0,62,0.00,,,0.00,meteohub,2013-02-19 06:41:00,
2013-02-19 01:47:00,32.7,21.9,30.21,NNW,338,10.0,21.0,64,0.00,,,0.00,meteohub,2013-02-19 06:47:00,
2013-02-19 01:52:00,32.7,21.9,30.21,NW,315,9.0,15.0,64,0.00,,,0.00,meteohub,2013-02-19 06:52:00,
2013-02-19 01:57:00,32.9,22.5,30.21,NW,315,9.0,14.0,65,0.00,,,0.00,meteohub,2013-02-19 06:57:00,
2013-02-19 02:02:00,32.7,22.3,30.20,NW,315,10.0,14.0,65,0.00,,,0.00,meteohub,2013-02-19 07:02:00,
2013-02-19 02:07:00,32.9,22.5,30.20,NW,315,11.0,15.0,65,0.00,,,0.00,meteohub,2013-02-19 07:07:00,
2013-02-19 02:12:00,32.9,22.1,30.20,NW,315,14.0,15.0,64,0.00,,,0.00,meteohub,2013-02-19 07:12:00,
2013-02-19 02:17:00,32.9,22.1,30.20,WNW,293,10.0,15.0,64,0.00,,,0.00,meteohub,2013-02-19 07:17:00,
2013-02-19 02:22:00,32.9,22.5,30.19,NW,315,6.0,15.0,65,0.00,,,0.00,meteohub,2013-02-19 07:22:00,
2013-02-19 02:27:00,32.7,22.3,30.19,WNW,293,5.0,15.0,65,0.00,,,0.00,meteohub,2013-02-19 07:27:00,
2013-02-19 02:32:00,32.7,22.3,30.19,NW,315,6.0,12.0,65,0.00,,,0.00,meteohub,2013-02-19 07:32:00,
2013-02-19 02:37:00,32.4,21.9,30.19,West,270,5.0,12.0,65,0.00,,,0.00,meteohub,2013-02-19 07:37:00,
2013-02-19 02:42:00,32.5,22.1,30.18,NNE,23,3.0,8.0,65,0.00,,,0.00,meteohub,2013-02-19 07:42:00,
2013-02-19 02:47:00,32.2,21.7,30.18,WNW,293,5.0,6.0,65,0.00,,,0.00,meteohub,2013-02-19 07:47:00,
2013-02-19 02:53:00,32.2,21.7,30.18,WNW,293,5.0,5.0,65,0.00,,,0.00,meteohub,2013-02-19 07:53:00,
2013-02-19 02:58:00,32.0,21.6,30.18,West,270,6.0,6.0,65,0.00,,,0.00,meteohub,2013-02-19 07:58:00,
2013-02-19 03:03:00,32.0,21.6,30.18,West,270,7.0,7.0,65,0.00,,,0.00,meteohub,2013-02-19 08:03:00,
2013-02-19 03:08:00,32.0,21.6,30.18,West,270,9.0,9.0,65,0.00,,,0.00,meteohub,2013-02-19 08:08:00,
2013-02-19 03:13:00,32.0,21.6,30.18,West,270,9.0,12.0,65,0.00,,,0.00,meteohub,2013-02-19 08:13:00,
2013-02-19 03:18:00,32.0,21.2,30.18,West,270,9.0,12.0,64,0.00,,,0.00,meteohub,2013-02-19 08:18:00,
2013-02-19 03:23:00,32.2,20.7,30.17,WNW,293,11.0,13.0,62,0.00,,,0.00,meteohub,2013-02-19 08:23:00,
2013-02-19 03:28:00,32.2,20.7,30.17,West,270,12.0,13.0,62,0.00,,,0.00,meteohub,2013-02-19 08:28:00,
2013-02-19 03:33:00,32.5,21.0,30.17,NW,315,7.0,13.0,62,0.00,,,0.00,meteohub,2013-02-19 08:33:00,
2013-02-19 03:39:00,32.5,21.0,30.17,West,270,11.0,12.0,62,0.00,,,0.00,meteohub,2013-02-19 08:39:00,
2013-02-19 03:44:00,32.4,20.5,30.17,West,270,11.0,12.0,61,0.00,,,0.00,meteohub,2013-02-19 08:44:00,
2013-02-19 03:49:00,32.5,20.1,30.17,NW,315,9.0,13.0,60,0.00,,,0.00,meteohub,2013-02-19 08:49:00,
2013-02-19 03:54:00,32.5,20.1,30.17,NW,315,10.0,13.0,60,0.00,,,0.00,meteohub,2013-02-19 08:54:00,
2013-02-19 03:59:00,32.5,20.1,30.16,NW,315,13.0,13.0,60,0.00,,,0.00,meteohub,2013-02-19 08:59:00,
2013-02-19 04:04:00,32.5,20.7,30.16,NW,315,11.0,12.0,61,0.00,,,0.00,meteohub,2013-02-19 09:04:00,
2013-02-19 04:09:00,32.7,21.2,30.16,WNW,293,10.0,13.0,62,0.00,,,0.00,meteohub,2013-02-19 09:09:00,
2013-02-19 04:14:00,32.7,21.2,30.16,West,270,11.0,13.0,62,0.00,,,0.00,meteohub,2013-02-19 09:14:00,
2013-02-19 04:19:00,32.7,21.2,30.17,WNW,293,11.0,15.0,62,0.00,,,0.00,meteohub,2013-02-19 09:19:00,
2013-02-19 04:24:00,32.7,21.2,30.17,WNW,293,10.0,15.0,62,0.00,,,0.00,meteohub,2013-02-19 09:24:00,
2013-02-19 04:30:00,32.7,21.6,30.17,WNW,293,14.0,15.0,63,0.00,,,0.00,meteohub,2013-02-19 09:30:00,
2013-02-19 04:35:00,32.7,21.9,30.17,West,270,8.0,14.0,64,0.00,,,0.00,meteohub,2013-02-19 09:35:00,
2013-02-19 04:40:00,32.9,22.1,30.17,NW,315,4.0,14.0,64,0.00,,,0.00,meteohub,2013-02-19 09:40:00,
2013-02-19 04:45:00,32.7,22.3,30.17,WNW,293,10.0,14.0,65,0.00,,,0.00,meteohub,2013-02-19 09:45:00,
2013-02-19 04:50:00,32.7,22.3,30.17,WSW,248,8.0,10.0,65,0.00,,,0.00,meteohub,2013-02-19 09:50:00,
2013-02-19 04:55:00,32.7,22.6,30.17,West,270,6.0,10.0,66,0.00,,,0.00,meteohub,2013-02-19 09:55:00,
2013-02-19 05:00:00,32.7,22.6,30.17,West,270,9.0,10.0,66,0.00,,,0.00,meteohub,2013-02-19 10:00:00,
2013-02-19 05:05:00,32.7,22.6,30.17,WNW,293,9.0,9.0,66,0.00,,,0.00,meteohub,2013-02-19 10:05:00,
2013-02-19 05:11:00,32.7,22.6,30.17,NW,315,6.0,9.0,66,0.00,,,0.00,meteohub,2013-02-19 10:11:00,
2013-02-19 05:16:00,32.7,22.6,30.17,West,270,7.0,9.0,66,0.00,,,0.00,meteohub,2013-02-19 10:16:00,
2013-02-19 05:21:00,32.5,22.8,30.16,WNW,293,6.0,9.0,67,0.00,,,0.00,meteohub,2013-02-19 10:21:00,
2013-02-19 05:26:00,32.5,22.8,30.16,West,270,6.0,7.0,67,0.00,,,0.00,meteohub,2013-02-19 10:26:00,
2013-02-19 05:31:00,32.5,23.2,30.16,West,270,5.0,7.0,68,0.00,,,0.00,meteohub,2013-02-19 10:31:00,
2013-02-19 05:36:00,32.5,23.2,30.16,WSW,248,5.0,6.0,68,0.00,,,0.00,meteohub,2013-02-19 10:36:00,
2013-02-19 05:41:00,32.2,22.8,30.16,SW,225,3.0,6.0,68,0.00,,,0.00,meteohub,2013-02-19 10:41:00,
2013-02-19 05:46:00,32.0,22.6,30.16,SW,225,9.0,9.0,68,0.00,,,0.00,meteohub,2013-02-19 10:46:00,
2013-02-19 05:51:00,32.0,23.0,30.16,SW,225,6.0,9.0,69,0.00,,,0.00,meteohub,2013-02-19 10:51:00,
2013-02-19 05:56:00,32.2,23.2,30.16,WSW,248,5.0,9.0,69,0.00,,,0.00,meteohub,2013-02-19 10:56:00,
2013-02-19 06:01:00,32.2,23.5,30.15,WSW,248,7.0,9.0,70,0.00,,,0.00,meteohub,2013-02-19 11:01:00,
2013-02-19 06:07:00,32.5,23.9,30.15,WSW,248,8.0,9.0,70,0.00,,,0.00,meteohub,2013-02-19 11:07:00,
2013-02-19 06:12:00,32.5,23.9,30.15,WSW,248,8.0,8.0,70,0.00,,,0.00,meteohub,2013-02-19 11:12:00,
2013-02-19 06:17:00,32.5,23.9,30.15,WSW,248,8.0,8.0,70,0.00,,,0.00,meteohub,2013-02-19 11:17:00,
2013-02-19 06:22:00,32.4,24.1,30.14,WSW,248,6.0,8.0,71,0.00,,,0.00,meteohub,2013-02-19 11:22:00,
2013-02-19 06:27:00,32.5,24.3,30.14,WSW,248,6.0,8.0,71,0.00,,,0.00,meteohub,2013-02-19 11:27:00,
2013-02-19 06:32:00,32.2,23.9,30.14,WSW,248,6.0,8.0,71,0.00,,,0.00,meteohub,2013-02-19 11:32:00,
2013-02-19 06:37:00,32.2,23.9,30.14,WSW,248,4.0,6.0,71,0.00,,,0.00,meteohub,2013-02-19 11:37:00,
2013-02-19 06:42:00,32.2,23.9,30.13,WSW,248,4.0,6.0,71,0.00,,,0.00,meteohub,2013-02-19 11:42:00,
2013-02-19 06:47:00,32.0,24.1,30.13,SW,225,4.0,6.0,72,0.00,,,0.00,meteohub,2013-02-19 11:47:00,
2013-02-19 06:52:00,32.0,24.1,30.13,SW,225,4.0,5.0,72,0.00,,,0.00,meteohub,2013-02-19 11:52:00,
2013-02-19 06:57:00,31.8,23.9,30.13,SW,225,4.0,4.0,72,0.00,,,0.00,meteohub,2013-02-19 11:57:00,
2013-02-19 07:02:00,31.8,23.9,30.12,SSW,203,5.0,5.0,72,0.00,,,0.00,meteohub,2013-02-19 12:02:00,
2013-02-19 07:07:00,31.8,23.9,30.12,SSW,203,4.0,5.0,72,0.00,,,0.00,meteohub,2013-02-19 12:07:00,
2013-02-19 07:12:00,31.8,23.9,30.12,South,180,4.0,5.0,72,0.00,,,0.00,meteohub,2013-02-19 12:12:00,
2013-02-19 07:17:00,31.8,24.1,30.12,SSW,203,4.0,5.0,73,0.00,,,0.00,meteohub,2013-02-19 12:17:00,
2013-02-19 07:22:00,32.0,24.3,30.12,SW,225,4.0,4.0,73,0.00,,,0.00,meteohub,2013-02-19 12:22:00,
2013-02-19 07:27:00,32.2,24.4,30.12,SSW,203,4.0,4.0,73,0.00,,,0.00,meteohub,2013-02-19 12:27:00,
2013-02-19 07:32:00,32.5,24.8,30.12,SW,225,4.0,4.0,73,0.00,,,0.00,meteohub,2013-02-19 12:32:00,
2013-02-19 07:37:00,32.7,25.3,30.12,SW,225,4.0,5.0,74,0.00,,,0.00,meteohub,2013-02-19 12:37:00,
2013-02-19 07:42:00,32.7,25.3,30.12,SW,225,4.0,5.0,74,0.00,,,0.00,meteohub,2013-02-19 12:42:00,
2013-02-19 07:47:00,33.3,26.2,30.12,South,180,4.0,5.0,75,0.00,,,0.00,meteohub,2013-02-19 12:47:00,
2013-02-19 07:52:00,33.4,26.4,30.12,South,180,4.0,5.0,75,0.00,,,0.00,meteohub,2013-02-19 12:52:00,
2013-02-19 07:57:00,34.0,27.0,30.12,SSW,203,6.0,6.0,75,0.00,,,0.00,meteohub,2013-02-19 12:57:00,
2013-02-19 08:02:00,34.0,27.0,30.12,SW,225,8.0,8.0,75,0.00,,,0.00,meteohub,2013-02-19 13:02:00,
2013-02-19 08:08:00,34.2,27.1,30.12,SW,225,7.0,7.0,75,0.00,,,0.00,meteohub,2013-02-19 13:08:00,
2013-02-19 08:13:00,34.7,27.9,30.12,WSW,248,9.0,9.0,76,0.00,,,0.00,meteohub,2013-02-19 13:13:00,
2013-02-19 08:18:00,35.1,28.2,30.12,WSW,248,8.0,9.0,76,0.00,,,0.00,meteohub,2013-02-19 13:18:00,
2013-02-19 08:23:00,35.8,29.3,30.11,SW,225,13.0,13.0,77,0.00,,,0.00,meteohub,2013-02-19 13:23:00,
2013-02-19 08:28:00,36.3,30.2,30.11,WSW,248,10.0,10.0,78,0.00,,,0.00,meteohub,2013-02-19 13:28:00,
2013-02-19 08:33:00,37.0,30.7,30.11,WSW,248,9.0,13.0,78,0.00,,,0.00,meteohub,2013-02-19 13:33:00,
2013-02-19 08:38:00,37.4,31.1,30.11,West,270,10.0,14.0,78,0.00,,,0.00,meteohub,2013-02-19 13:38:00,
2013-02-19 08:43:00,37.9,32.0,30.10,West,270,14.0,14.0,79,0.00,,,0.00,meteohub,2013-02-19 13:43:00,
2013-02-19 08:48:00,38.5,32.5,30.10,WSW,248,14.0,14.0,79,0.00,,,0.00,meteohub,2013-02-19 13:48:00,
2013-02-19 08:54:00,39.0,33.1,30.10,WSW,248,11.0,14.0,79,0.00,,,0.00,meteohub,2013-02-19 13:54:00,
2013-02-19 08:59:00,39.0,33.1,30.09,SW,225,10.0,14.0,79,0.00,,,0.00,meteohub,2013-02-19 13:59:00,
2013-02-19 09:04:00,39.6,33.6,30.09,SW,225,15.0,15.0,79,0.00,,,0.00,meteohub,2013-02-19 14:04:00,
2013-02-19 09:09:00,40.1,34.2,30.09,West,270,14.0,15.0,79,0.00,,,0.00,meteohub,2013-02-19 14:09:00,
2013-02-19 09:14:00,40.3,34.0,30.09,West,270,16.0,20.0,78,0.00,,,0.00,meteohub,2013-02-19 14:14:00,
2013-02-19 09:19:00,40.8,34.5,30.09,WSW,248,25.0,25.0,78,0.00,,,0.00,meteohub,2013-02-19 14:19:00,
2013-02-19 09:24:00,41.0,34.3,30.09,WSW,248,16.0,25.0,77,0.00,,,0.00,meteohub,2013-02-19 14:24:00,
2013-02-19 09:29:00,41.5,34.9,30.09,West,270,19.0,25.0,77,0.00,,,0.00,meteohub,2013-02-19 14:29:00,
2013-02-19 09:35:00,42.1,35.1,30.09,SW,225,18.0,25.0,76,0.00,,,0.00,meteohub,2013-02-19 14:35:00,
2013-02-19 09:40:00,42.3,35.2,30.09,WSW,248,16.0,25.0,76,0.00,,,0.00,meteohub,2013-02-19 14:40:00,
2013-02-19 09:45:00,42.6,35.2,30.09,WSW,248,12.0,25.0,75,0.00,,,0.00,meteohub,2013-02-19 14:45:00,
2013-02-19 09:50:00,43.0,35.6,30.09,WSW,248,16.0,25.0,75,0.00,,,0.00,meteohub,2013-02-19 14:50:00,
2013-02-19 09:55:00,43.3,36.0,30.09,SW,225,14.0,19.0,75,0.00,,,0.00,meteohub,2013-02-19 14:55:00,
2013-02-19 10:00:00,43.5,35.8,30.08,WSW,248,18.0,23.0,74,0.00,,,0.00,meteohub,2013-02-19 15:00:00,
2013-02-19 10:05:00,44.1,36.0,30.08,West,270,17.0,23.0,73,0.00,,,0.00,meteohub,2013-02-19 15:05:00,
2013-02-19 10:10:00,44.1,36.0,30.08,West,270,16.0,23.0,73,0.00,,,0.00,meteohub,2013-02-19 15:10:00,
2013-02-19 10:15:00,44.6,36.1,30.08,WSW,248,14.0,18.0,72,0.00,,,0.00,meteohub,2013-02-19 15:15:00,
2013-02-19 10:20:00,45.0,36.1,30.09,WSW,248,14.0,17.0,71,0.00,,,0.00,meteohub,2013-02-19 15:20:00,
2013-02-19 10:25:00,45.5,36.7,30.09,WSW,248,18.0,18.0,71,0.00,,,0.00,meteohub,2013-02-19 15:25:00,
2013-02-19 10:30:00,45.5,36.3,30.09,WSW,248,15.0,18.0,70,0.00,,,0.00,meteohub,2013-02-19 15:30:00,
2013-02-19 10:36:00,45.3,36.1,30.09,SW,225,11.0,19.0,70,0.00,,,0.00,meteohub,2013-02-19 15:36:00,
2013-02-19 10:41:00,45.7,36.1,30.09,WSW,248,12.0,19.0,69,0.00,,,0.00,meteohub,2013-02-19 15:41:00,
2013-02-19 10:46:00,46.2,36.7,30.09,SW,225,12.0,15.0,69,0.00,,,0.00,meteohub,2013-02-19 15:46:00,
2013-02-19 10:51:00,46.2,36.7,30.09,South,180,7.0,13.0,69,0.00,,,0.00,meteohub,2013-02-19 15:51:00,
2013-02-19 10:56:00,46.2,36.3,30.09,WNW,293,7.0,16.0,68,0.00,,,0.00,meteohub,2013-02-19 15:56:00,
2013-02-19 11:01:00,46.6,36.5,30.08,SW,225,11.0,16.0,68,0.00,,,0.00,meteohub,2013-02-19 16:01:00,
2013-02-19 11:06:00,46.8,36.7,30.08,SW,225,16.0,16.0,68,0.00,,,0.00,meteohub,2013-02-19 16:06:00,
2013-02-19 11:11:00,46.9,36.5,30.08,WSW,248,14.0,16.0,67,0.00,,,0.00,meteohub,2013-02-19 16:11:00,
2013-02-19 11:16:00,47.1,36.7,30.08,SW,225,11.0,16.0,67,0.00,,,0.00,meteohub,2013-02-19 16:16:00,
2013-02-19 11:21:00,47.3,36.9,30.05,WSW,248,13.0,16.0,67,0.00,,,0.00,meteohub,2013-02-19 16:21:00,
2013-02-19 11:26:00,47.3,36.9,30.05,West,270,11.0,14.0,67,0.00,,,0.00,meteohub,2013-02-19 16:26:00,
2013-02-19 11:31:00,47.3,37.2,30.05,West,270,8.0,14.0,68,0.00,,,0.00,meteohub,2013-02-19 16:31:00,
2013-02-19 11:37:00,47.3,36.9,30.05,WSW,248,15.0,15.0,67,0.00,,,0.00,meteohub,2013-02-19 16:37:00,
2013-02-19 11:42:00,47.1,36.7,30.05,West,270,16.0,17.0,67,0.00,,,0.00,meteohub,2013-02-19 16:42:00,
2013-02-19 11:47:00,47.3,37.2,30.05,WSW,248,11.0,18.0,68,0.00,,,0.00,meteohub,2013-02-19 16:47:00,
2013-02-19 11:52:00,47.3,37.2,30.05,West,270,13.0,18.0,68,0.00,,,0.00,meteohub,2013-02-19 16:52:00,
2013-02-19 11:57:00,47.3,37.6,30.05,WSW,248,16.0,17.0,69,0.00,,,0.00,meteohub,2013-02-19 16:57:00,
2013-02-19 12:02:00,47.7,37.6,30.03,SW,225,12.0,17.0,68,0.00,,,0.00,meteohub,2013-02-19 17:02:00,
2013-02-19 12:07:00,47.7,37.9,30.03,SW,225,13.0,18.0,69,0.00,,,0.00,meteohub,2013-02-19 17:07:00,
2013-02-19 12:12:00,47.7,37.9,30.03,SW,225,13.0,18.0,69,0.00,,,0.00,meteohub,2013-02-19 17:12:00,
2013-02-19 12:17:00,47.7,37.9,30.03,SW,225,13.0,18.0,69,0.00,,,0.00,meteohub,2013-02-19 17:17:00,
2013-02-19 12:22:00,48.4,38.7,30.01,SSW,203,16.0,16.0,69,0.00,,,0.00,meteohub,2013-02-19 17:22:00,
2013-02-19 12:27:00,48.2,38.5,30.01,SW,225,14.0,17.0,69,0.00,,,0.00,meteohub,2013-02-19 17:27:00,
2013-02-19 12:32:00,48.4,38.7,30.01,WSW,248,15.0,17.0,69,0.00,,,0.00,meteohub,2013-02-19 17:32:00,
2013-02-19 12:37:00,48.6,38.5,30.01,WSW,248,11.0,17.0,68,0.00,,,0.00,meteohub,2013-02-19 17:37:00,
2013-02-19 12:42:00,48.6,38.5,30.01,WSW,248,11.0,17.0,68,0.00,,,0.00,meteohub,2013-02-19 17:42:00,
2013-02-19 12:47:00,48.4,38.3,30.01,WSW,248,11.0,17.0,68,0.00,,,0.00,meteohub,2013-02-19 17:47:00,
2013-02-19 12:52:00,48.4,38.3,30.01,South,180,12.0,17.0,68,0.00,,,0.00,meteohub,2013-02-19 17:52:00,
2013-02-19 12:57:00,48.4,38.3,30.01,WSW,248,15.0,15.0,68,0.00,,,0.00,meteohub,2013-02-19 17:57:00,
2013-02-19 13:02:00,48.2,38.1,29.99,West,270,14.0,17.0,68,0.00,,,0.00,meteohub,2013-02-19 18:02:00,
2013-02-19 13:07:00,48.4,38.3,29.99,WSW,248,11.0,17.0,68,0.00,,,0.00,meteohub,2013-02-19 18:07:00,
2013-02-19 13:12:00,48.4,38.7,29.99,SSW,203,9.0,16.0,69,0.00,,,0.00,meteohub,2013-02-19 18:12:00,
2013-02-19 13:17:00,48.6,38.5,29.99,WSW,248,14.0,16.0,68,0.00,,,0.00,meteohub,2013-02-19 18:17:00,
2013-02-19 13:22:00,48.6,38.5,29.98,WSW,248,15.0,15.0,68,0.00,,,0.00,meteohub,2013-02-19 18:22:00,
2013-02-19 13:27:00,49.1,39.4,29.98,SW,225,13.0,15.0,69,0.00,,,0.00,meteohub,2013-02-19 18:27:00,
2013-02-19 13:32:00,48.6,38.8,29.98,WSW,248,15.0,15.0,69,0.00,,,0.00,meteohub,2013-02-19 18:32:00,
2013-02-19 13:37:00,48.4,38.7,29.98,SW,225,17.0,17.0,69,0.00,,,0.00,meteohub,2013-02-19 18:37:00,
2013-02-19 13:42:00,48.0,38.7,29.96,WSW,248,15.0,20.0,70,0.00,,,0.00,meteohub,2013-02-19 18:42:00,
2013-02-19 13:47:00,47.7,38.3,29.96,WSW,248,17.0,20.0,70,0.00,,,0.00,meteohub,2013-02-19 18:47:00,
2013-02-19 13:52:00,47.1,38.1,29.96,WSW,248,20.0,20.0,71,0.00,,,0.00,meteohub,2013-02-19 18:52:00,
2013-02-19 13:57:00,47.5,38.8,29.96,SW,225,22.0,22.0,72,0.00,,,0.00,meteohub,2013-02-19 18:57:00,
2013-02-19 14:02:00,47.7,39.0,29.94,SW,225,19.0,22.0,72,0.00,,,0.00,meteohub,2013-02-19 19:02:00,
2013-02-19 14:07:00,47.7,39.0,29.94,WSW,248,14.0,22.0,72,0.00,,,0.00,meteohub,2013-02-19 19:07:00,
2013-02-19 14:12:00,47.3,38.7,29.94,WSW,248,10.0,22.0,72,0.00,,,0.00,meteohub,2013-02-19 19:12:00,
2013-02-19 14:17:00,46.9,38.3,29.94,WSW,248,11.0,19.0,72,0.00,,,0.00,meteohub,2013-02-19 19:17:00,
2013-02-19 14:22:00,46.9,38.3,29.93,South,180,11.0,15.0,72,0.00,,,0.00,meteohub,2013-02-19 19:22:00,
2013-02-19 14:27:00,46.9,38.7,29.93,WSW,248,12.0,14.0,73,0.00,,,0.00,meteohub,2013-02-19 19:27:00,
2013-02-19 14:32:00,46.6,38.5,29.93,WSW,248,12.0,14.0,73,0.00,,,0.00,meteohub,2013-02-19 19:32:00,
2013-02-19 14:37:00,46.6,38.7,29.93,WSW,248,13.0,13.0,74,0.00,,,0.00,meteohub,2013-02-19 19:37:00,
2013-02-19 14:42:00,46.6,38.7,29.92,WSW,248,17.0,17.0,74,0.00,,,0.00,meteohub,2013-02-19 19:42:00,
2013-02-19 14:47:00,46.6,38.7,29.92,SW,225,11.0,17.0,74,0.00,,,0.00,meteohub,2013-02-19 19:47:00,
2013-02-19 14:52:00,46.2,39.0,29.92,WSW,248,17.0,17.0,76,0.00,,,0.00,meteohub,2013-02-19 19:52:00,
2013-02-19 14:57:00,46.2,39.0,29.92,WSW,248,16.0,17.0,76,0.00,,,0.00,meteohub,2013-02-19 19:57:00,
2013-02-19 15:02:00,46.2,39.4,29.92,WSW,248,15.0,17.0,77,0.00,,,0.00,meteohub,2013-02-19 20:02:00,
2013-02-19 15:07:00,46.2,39.7,29.92,WSW,248,16.0,19.0,78,0.00,,,0.00,meteohub,2013-02-19 20:07:00,
2013-02-19 15:12:00,46.2,39.7,29.92,WSW,248,20.0,20.0,78,0.00,,,0.00,meteohub,2013-02-19 20:12:00,
2013-02-19 15:17:00,45.9,39.7,29.92,WSW,248,18.0,22.0,79,0.00,,,0.00,meteohub,2013-02-19 20:17:00,
2013-02-19 15:22:00,45.7,39.9,29.90,West,270,15.0,22.0,80,0.00,,,0.00,meteohub,2013-02-19 20:22:00,
2013-02-19 15:27:00,45.7,39.9,29.90,WSW,248,15.0,22.0,80,0.00,,,0.00,meteohub,2013-02-19 20:27:00,
2013-02-19 15:32:00,45.5,39.7,29.90,WSW,248,19.0,22.0,80,0.00,,,0.00,meteohub,2013-02-19 20:32:00,
2013-02-19 15:37:00,45.5,39.7,29.90,West,270,13.0,20.0,80,0.00,,,0.00,meteohub,2013-02-19 20:37:00,
2013-02-19 15:42:00,45.1,39.4,29.88,WSW,248,18.0,19.0,80,0.00,,,0.00,meteohub,2013-02-19 20:42:00,
2013-02-19 15:47:00,45.0,39.6,29.88,WSW,248,21.0,21.0,81,0.00,,,0.00,meteohub,2013-02-19 20:47:00,
2013-02-19 15:52:00,45.0,39.6,29.88,WSW,248,17.0,21.0,81,0.00,,,0.00,meteohub,2013-02-19 20:52:00,
2013-02-19 15:57:00,45.1,39.7,29.88,SW,225,12.0,21.0,81,0.00,,,0.00,meteohub,2013-02-19 20:57:00,
2013-02-19 16:02:00,45.0,39.6,29.86,SSW,203,15.0,21.0,81,0.00,,,0.00,meteohub,2013-02-19 21:02:00,
2013-02-19 16:07:00,45.0,39.7,29.86,WSW,248,17.0,18.0,82,0.00,,,0.00,meteohub,2013-02-19 21:07:00,
2013-02-19 16:12:00,44.8,39.6,29.86,WSW,248,17.0,17.0,82,0.00,,,0.00,meteohub,2013-02-19 21:12:00,
2013-02-19 16:17:00,44.6,39.4,29.86,SW,225,16.0,17.0,82,0.00,,,0.00,meteohub,2013-02-19 21:17:00,
2013-02-19 16:22:00,44.6,39.4,29.85,SW,225,13.0,17.0,82,0.00,,,0.00,meteohub,2013-02-19 21:22:00,
2013-02-19 16:27:00,44.2,39.0,29.85,SW,225,17.0,17.0,82,0.00,,,0.00,meteohub,2013-02-19 21:27:00,
2013-02-19 16:32:00,44.4,39.6,29.85,SSW,203,13.0,17.0,83,0.00,,,0.00,meteohub,2013-02-19 21:32:00,
2013-02-19 16:37:00,44.2,39.4,29.85,WSW,248,16.0,18.0,83,0.03,,,0.03,meteohub,2013-02-19 21:37:00,
2013-02-19 16:42:00,44.2,39.7,29.82,WSW,248,19.0,19.0,84,0.03,,,0.03,meteohub,2013-02-19 21:42:00,
2013-02-19 16:47:00,44.1,39.6,29.82,SW,225,17.0,19.0,84,0.03,,,0.03,meteohub,2013-02-19 21:47:00,
2013-02-19 16:52:00,44.1,39.6,29.82,SW,225,16.0,19.0,84,0.03,,,0.03,meteohub,2013-02-19 21:52:00,
2013-02-19 16:58:00,44.1,39.9,29.82,SW,225,19.0,21.0,85,0.03,,,0.03,meteohub,2013-02-19 21:58:00,
2013-02-19 17:03:00,44.1,39.9,29.79,SW,225,15.0,21.0,85,0.03,,,0.03,meteohub,2013-02-19 22:03:00,
2013-02-19 17:08:00,44.1,39.9,29.79,SW,225,15.0,21.0,85,0.03,,,0.03,meteohub,2013-02-19 22:08:00,
2013-02-19 17:13:00,44.4,40.3,29.79,SSW,203,17.0,20.0,85,0.03,,,0.03,meteohub,2013-02-19 22:13:00,
2013-02-19 17:18:00,44.4,40.3,29.79,South,180,17.0,19.0,85,0.03,,,0.03,meteohub,2013-02-19 22:18:00,
2013-02-19 17:23:00,44.4,40.5,29.78,South,180,16.0,19.0,86,0.06,,,0.06,meteohub,2013-02-19 22:23:00,
2013-02-19 17:28:00,44.4,40.5,29.78,SW,225,14.0,19.0,86,0.06,,,0.06,meteohub,2013-02-19 22:28:00,
2013-02-19 17:33:00,44.2,40.3,29.78,SW,225,13.0,19.0,86,0.06,,,0.06,meteohub,2013-02-19 22:33:00,
2013-02-19 17:38:00,44.4,40.5,29.79,SW,225,19.0,19.0,86,0.03,,,0.06,meteohub,2013-02-19 22:38:00,
2013-02-19 17:43:00,44.2,40.6,29.79,WSW,248,21.0,21.0,87,0.03,,,0.06,meteohub,2013-02-19 22:43:00,
2013-02-19 17:49:00,44.8,41.2,29.79,NNW,338,3.0,19.0,87,0.06,,,0.08,meteohub,2013-02-19 22:49:00,
2013-02-19 17:54:00,44.2,40.6,29.79,WSW,248,9.0,21.0,87,0.08,,,0.11,meteohub,2013-02-19 22:54:00,
2013-02-19 17:59:00,44.1,40.5,29.78,SW,225,9.0,21.0,87,0.08,,,0.11,meteohub,2013-02-19 22:59:00,
2013-02-19 18:04:00,44.1,40.5,29.78,West,270,6.0,15.0,87,0.08,,,0.11,meteohub,2013-02-19 23:04:00,
2013-02-19 18:09:00,44.2,40.6,29.78,SW,225,5.0,10.0,87,0.11,,,0.14,meteohub,2013-02-19 23:09:00,
2013-02-19 18:14:00,44.2,40.6,29.78,SW,225,7.0,9.0,87,0.14,,,0.17,meteohub,2013-02-19 23:14:00,
2013-02-19 18:19:00,44.4,40.8,29.77,SW,225,12.0,12.0,87,0.14,,,0.17,meteohub,2013-02-19 23:19:00,
2013-02-19 18:24:00,44.2,41.0,29.77,WSW,248,8.0,10.0,88,0.11,,,0.17,meteohub,2013-02-19 23:24:00,
2013-02-19 18:29:00,44.4,41.2,29.77,WSW,248,14.0,14.0,88,0.14,,,0.19,meteohub,2013-02-19 23:29:00,
2013-02-19 18:34:00,44.6,41.2,29.77,WSW,248,12.0,13.0,88,0.14,,,0.19,meteohub,2013-02-19 23:34:00,
2013-02-19 18:40:00,44.8,41.4,29.75,SW,225,12.0,14.0,88,0.14,,,0.19,meteohub,2013-02-19 23:40:00,
2013-02-19 18:45:00,44.8,41.4,29.75,SSW,203,12.0,14.0,88,0.11,,,0.19,meteohub,2013-02-19 23:45:00,
2013-02-19 18:50:00,44.8,41.4,29.75,WSW,248,16.0,16.0,88,0.08,,,0.19,meteohub,2013-02-19 23:50:00,
2013-02-19 18:55:00,44.6,41.2,29.75,SW,225,12.0,16.0,88,0.11,,,0.22,meteohub,2013-02-19 23:55:00,
2013-02-19 19:00:00,44.6,41.2,29.73,SW,225,13.0,16.0,88,0.08,,,0.22,meteohub,2013-02-20 00:00:00,
2013-02-19 19:05:00,44.6,41.2,29.73,SW,225,12.0,16.0,88,0.05,,,0.00,meteohub,2013-02-20 00:05:00,
2013-02-19 19:10:00,44.4,41.2,29.73,SW,225,12.0,16.0,88,0.05,,,0.00,meteohub,2013-02-20 00:10:00,
2013-02-19 19:15:00,44.4,41.2,29.73,SW,225,14.0,16.0,88,0.05,,,0.00,meteohub,2013-02-20 00:15:00,
2013-02-19 19:20:00,44.4,41.2,29.70,SW,225,16.0,16.0,88,0.02,,,0.00,meteohub,2013-02-20 00:20:00,
2013-02-19 19:25:00,44.4,41.2,29.70,SW,225,15.0,16.0,88,0.02,,,0.00,meteohub,2013-02-20 00:25:00,
2013-02-19 19:30:00,44.4,41.2,29.70,SW,225,14.0,16.0,88,0.02,,,0.00,meteohub,2013-02-20 00:30:00,
2013-02-19 19:36:00,44.4,41.2,29.70,SW,225,11.0,16.0,88,0.02,,,0.00,meteohub,2013-02-20 00:36:00,
2013-02-19 19:41:00,44.4,41.2,29.69,SW,225,15.0,15.0,88,0.05,,,0.03,meteohub,2013-02-20 00:41:00,
2013-02-19 19:46:00,44.4,41.2,29.69,SW,225,16.0,16.0,88,0.05,,,0.03,meteohub,2013-02-20 00:46:00,
2013-02-19 19:51:00,44.4,41.2,29.69,SW,225,12.0,16.0,88,0.03,,,0.03,meteohub,2013-02-20 00:51:00,
2013-02-19 19:56:00,44.4,41.2,29.69,NW,315,11.0,16.0,88,0.03,,,0.03,meteohub,2013-02-20 00:56:00,
2013-02-19 20:01:00,44.6,41.2,29.68,SW,225,19.0,19.0,88,0.03,,,0.03,meteohub,2013-02-20 01:01:00,
2013-02-19 20:06:00,45.0,41.5,29.68,WSW,248,11.0,19.0,88,0.03,,,0.03,meteohub,2013-02-20 01:06:00,
2013-02-19 20:11:00,45.1,42.1,29.68,West,270,17.0,19.0,89,0.06,,,0.06,meteohub,2013-02-20 01:11:00,
2013-02-19 20:16:00,45.7,42.6,29.68,NW,315,12.0,19.0,89,0.06,,,0.06,meteohub,2013-02-20 01:16:00,
2013-02-19 20:22:00,45.7,42.6,29.66,WNW,293,15.0,17.0,89,0.06,,,0.06,meteohub,2013-02-20 01:22:00,
2013-02-19 20:27:00,45.5,42.4,29.66,NW,315,12.0,17.0,89,0.06,,,0.06,meteohub,2013-02-20 01:27:00,
2013-02-19 20:32:00,45.5,42.4,29.66,West,270,17.0,17.0,89,0.06,,,0.06,meteohub,2013-02-20 01:32:00,
2013-02-19 20:37:00,45.7,42.6,29.66,WNW,293,17.0,20.0,89,0.03,,,0.06,meteohub,2013-02-20 01:37:00,
2013-02-19 20:42:00,45.5,42.4,29.67,NW,315,9.0,20.0,89,0.03,,,0.06,meteohub,2013-02-20 01:42:00,
2013-02-19 20:47:00,45.5,42.4,29.67,NNE,23,15.0,20.0,89,0.06,,,0.08,meteohub,2013-02-20 01:47:00,
2013-02-19 20:52:00,45.1,42.1,29.67,NW,315,14.0,17.0,89,0.06,,,0.08,meteohub,2013-02-20 01:52:00,
2013-02-19 20:57:00,44.8,41.7,29.67,NW,315,17.0,17.0,89,0.06,,,0.08,meteohub,2013-02-20 01:57:00,
2013-02-19 21:02:00,44.6,41.5,29.66,NW,315,10.0,17.0,89,0.06,,,0.08,meteohub,2013-02-20 02:02:00,
2013-02-19 21:07:00,44.2,41.2,29.66,NW,315,17.0,17.0,89,0.03,,,0.08,meteohub,2013-02-20 02:07:00,
2013-02-19 21:12:00,44.1,41.0,29.66,NW,315,5.0,18.0,89,0.03,,,0.08,meteohub,2013-02-20 02:12:00,
2013-02-19 21:17:00,43.7,40.6,29.66,NW,315,12.0,18.0,89,0.03,,,0.08,meteohub,2013-02-20 02:17:00,
2013-02-19 21:22:00,43.5,40.5,29.66,NNW,338,12.0,18.0,89,0.03,,,0.08,meteohub,2013-02-20 02:22:00,
2013-02-19 21:27:00,43.3,40.3,29.66,NW,315,13.0,13.0,89,0.03,,,0.08,meteohub,2013-02-20 02:27:00,
2013-02-19 21:32:00,43.2,40.1,29.66,NW,315,11.0,14.0,89,0.03,,,0.08,meteohub,2013-02-20 02:32:00,
2013-02-19 21:37:00,43.3,40.3,29.66,NW,315,9.0,14.0,89,0.03,,,0.08,meteohub,2013-02-20 02:37:00,
2013-02-19 21:42:00,43.0,39.9,29.64,NNW,338,9.0,14.0,89,0.03,,,0.08,meteohub,2013-02-20 02:42:00,
2013-02-19 21:47:00,42.8,39.7,29.64,NW,315,8.0,13.0,89,0.00,,,0.08,meteohub,2013-02-20 02:47:00,
2013-02-19 21:52:00,42.6,39.6,29.64,NW,315,7.0,9.0,89,0.03,,,0.11,meteohub,2013-02-20 02:52:00,
2013-02-19 21:57:00,42.4,39.4,29.64,NW,315,7.0,9.0,89,0.03,,,0.11,meteohub,2013-02-20 02:57:00,
2013-02-19 22:02:00,42.3,39.2,29.64,NNW,338,7.0,11.0,89,0.03,,,0.11,meteohub,2013-02-20 03:02:00,
2013-02-19 22:07:00,42.1,39.0,29.64,NW,315,6.0,11.0,89,0.03,,,0.11,meteohub,2013-02-20 03:07:00,
2013-02-19 22:12:00,41.9,38.8,29.64,NW,315,12.0,12.0,89,0.03,,,0.11,meteohub,2013-02-20 03:12:00,
2013-02-19 22:17:00,41.9,38.8,29.64,NW,315,11.0,14.0,89,0.03,,,0.11,meteohub,2013-02-20 03:17:00,
2013-02-19 22:22:00,41.7,38.7,29.65,NW,315,7.0,14.0,89,0.03,,,0.11,meteohub,2013-02-20 03:22:00,
2013-02-19 22:27:00,41.9,38.8,29.65,NW,315,9.0,14.0,89,0.03,,,0.11,meteohub,2013-02-20 03:27:00,
2013-02-19 22:32:00,41.9,38.8,29.65,NW,315,4.0,12.0,89,0.03,,,0.11,meteohub,2013-02-20 03:32:00,
2013-02-19 22:37:00,41.9,38.8,29.65,NW,315,11.0,12.0,89,0.03,,,0.11,meteohub,2013-02-20 03:37:00,
2013-02-19 22:42:00,41.7,38.7,29.64,WNW,293,12.0,12.0,89,0.00,,,0.11,meteohub,2013-02-20 03:42:00,
2013-02-19 22:47:00,41.5,38.5,29.64,NNW,338,9.0,13.0,89,0.00,,,0.11,meteohub,2013-02-20 03:47:00,
2013-02-19 22:52:00,41.9,38.8,29.64,NW,315,11.0,13.0,89,0.00,,,0.11,meteohub,2013-02-20 03:52:00,
2013-02-19 22:57:00,41.7,38.7,29.64,NW,315,12.0,13.0,89,0.00,,,0.11,meteohub,2013-02-20 03:57:00,
2013-02-19 23:02:00,41.9,39.2,29.63,NW,315,11.0,12.0,90,0.00,,,0.11,meteohub,2013-02-20 04:02:00,
2013-02-19 23:07:00,41.7,39.0,29.63,WNW,293,11.0,13.0,90,0.00,,,0.11,meteohub,2013-02-20 04:07:00,
2013-02-19 23:12:00,41.5,38.8,29.63,NNE,23,9.0,13.0,90,0.00,,,0.11,meteohub,2013-02-20 04:12:00,
2013-02-19 23:17:00,41.5,38.8,29.63,NW,315,9.0,13.0,90,0.00,,,0.11,meteohub,2013-02-20 04:17:00,
2013-02-19 23:22:00,41.5,38.8,29.62,NW,315,5.0,13.0,90,0.00,,,0.11,meteohub,2013-02-20 04:22:00,
2013-02-19 23:27:00,41.4,38.7,29.62,NNW,338,6.0,13.0,90,0.00,,,0.11,meteohub,2013-02-20 04:27:00,
2013-02-19 23:32:00,41.4,38.7,29.62,NW,315,8.0,12.0,90,0.00,,,0.11,meteohub,2013-02-20 04:32:00,
2013-02-19 23:37:00,41.2,38.5,29.62,WNW,293,12.0,12.0,90,0.00,,,0.11,meteohub,2013-02-20 04:37:00,
2013-02-19 23:42:00,41.2,38.5,29.63,NW,315,12.0,12.0,90,0.00,,,0.11,meteohub,2013-02-20 04:42:00,
2013-02-19 23:47:00,40.8,38.1,29.63,NW,315,14.0,14.0,90,0.00,,,0.11,meteohub,2013-02-20 04:47:00,
2013-02-19 23:52:00,40.6,37.9,29.63,NW,315,14.0,20.0,90,0.00,,,0.11,meteohub,2013-02-20 04:52:00,
2013-02-19 23:57:00,40.5,37.8,29.63,NW,315,20.0,20.0,90,0.00,,,0.11,meteohub,2013-02-20 04:57:00,